Paynesville, MN

5:21 AM CST on December 17, 2017 (GMT -0600)
Paynesville

Weather History for KPEX - April, 2014

Change the Weather History Date:

Tuesday, April 1, 2014

  Actual Average (KLJF) Record (KLJF)
Temperature  
Mean Temperature 26 °F -  
Max Temperature 33 °F 48 °F 80 °F (2015)
Min Temperature 18 °F 26 °F -1 °F (1975)
Degree Days  
Heating Degree Days 40    
Moisture  
Dew Point 18 °F    
Average Humidity 80    
Maximum Humidity 93    
Minimum Humidity 74    
Precipitation  
Precipitation 0.00 in - - ()
Sea Level Pressure  
Sea Level Pressure 29.88 in    
Wind  
Wind Speed 18 mph (WNW)    
Max Wind Speed 28 mph    
Max Gust Speed 40 mph    
Visibility 8 miles    
Events Rain , Snow    
Averages and records for this station are not official NWS values.
T = Trace of Precipitation, MM = Missing Value Source: NWS Daily Summary

Daily Weather History Graph

Daily Weather History Graph

Search for Another Location

Airport or City:

Trip Planner

Search our weather history database for the weather conditions in past years. The results will help you decide how hot, cold, wet, or windy it might be!

Date:

Astronomy

Apr. 01, 2014 Rise Set
Actual Time 6:59 AM CDT 7:47 PM CDT
Civil Twilight 6:29 AM CDT 8:17 PM CDT
Nautical Twilight 5:53 AM CDT 8:52 PM CDT
Astronomical Twilight 5:16 AM CDT 9:30 PM CDT
Moon 7:57 AM CDT (4/1) 10:17 PM CDT (4/1)
Length of Visible Light 13h 47m
Length of Day
12h 47m
Waxing Crescent, 5% of the Moon is Illuminated
Apr 1
Waxing Crescent
Apr 7
First Quarter
Apr 15
Full
Apr 22
Last Quarter
Apr 29
New

Hourly Weather History & Observations

Time (CDT) Temp. Windchill Dew Point Humidity Pressure Visibility Wind Dir Wind Speed Gust Speed Precip Events Conditions
12:12 AM 33.4 °F 22.7 °F 31.6 °F 93% 29.44 in 5.0 mi NNW 17.3 mph 25.3 mph N/A Rain Light Rain
12:31 AM 31.8 °F 20.2 °F 29.8 °F 92% 29.46 in 4.0 mi NW 18.4 mph 26.5 mph N/A Rain Light Freezing Rain
12:52 AM 29.1 °F 14.8 °F 26.8 °F 91% 29.47 in 3.0 mi NW 25.3 mph 32.2 mph N/A Snow Light Snow
1:12 AM 26.2 °F 10.6 °F 23.7 °F 90% 29.50 in 5.0 mi NW 26.5 mph 32.2 mph N/A   Overcast
1:32 AM 25.0 °F 9.5 °F 22.3 °F 89% 29.52 in 7.0 mi NW 24.2 mph 33.4 mph N/A   Overcast
1:52 AM 24.3 °F 9.6 °F 20.3 °F 85% 29.55 in 10.0 mi NW 20.7 mph 32.2 mph N/A   Overcast
2:12 AM 22.8 °F 7.7 °F 19.2 °F 86% 29.57 in 4.0 mi NW 20.7 mph 34.5 mph N/A Snow Light Snow
2:32 AM 22.5 °F 8.0 °F 18.9 °F 86% 29.59 in 5.0 mi NW 18.4 mph 32.2 mph N/A Snow Light Snow
2:52 AM 21.9 °F 5.1 °F 17.8 °F 84% 29.60 in 5.0 mi NW 25.3 mph 34.5 mph N/A Snow Light Snow
3:13 AM 21.7 °F 6.7 °F 17.6 °F 84% 29.62 in 5.0 mi NW 19.6 mph 36.8 mph N/A   Haze
3:32 AM 20.3 °F 2.3 °F 15.8 °F 83% 29.62 in 3.0 mi NW 27.6 mph 35.7 mph N/A Snow Light Snow
3:52 AM 19.9 °F 3.5 °F 14.7 °F 80% 29.64 in 5.0 mi NW 21.9 mph 38.0 mph N/A Snow Light Snow
4:12 AM 19.9 °F 2.2 °F 15.6 °F 83% 29.65 in 2.5 mi NW 26.5 mph 34.5 mph N/A Snow Light Snow
4:32 AM 19.2 °F 3.8 °F 14.9 °F 83% 29.67 in 3.0 mi WNW 18.4 mph 34.5 mph N/A Snow Light Snow
4:52 AM 18.5 °F 1.3 °F 14.5 °F 85% 29.68 in 2.0 mi NW 23.0 mph 34.5 mph N/A Snow Light Snow
5:12 AM 18.3 °F 1.8 °F 13.5 °F 81% 29.70 in 4.0 mi NW 20.7 mph 34.5 mph N/A Snow Light Snow
5:32 AM 18.3 °F 1.0 °F 13.8 °F 83% 29.72 in 3.0 mi NW 23.0 mph 32.2 mph N/A Snow Light Snow
5:52 AM 18.1 °F 0.1 °F 13.3 °F 81% 29.73 in 5.0 mi NW 25.3 mph 40.3 mph N/A Snow Light Snow
6:12 AM 18.1 °F 1.6 °F 13.6 °F 83% 29.75 in 2.5 mi NW 20.7 mph 34.5 mph N/A Snow Light Snow
6:32 AM 18.1 °F 1.6 °F 14.0 °F 84% 29.77 in 2.5 mi WNW 20.7 mph 29.9 mph N/A Snow Light Snow
6:52 AM 18.0 °F 0.6 °F 13.5 °F 83% 29.79 in 3.0 mi NW 23.0 mph 34.5 mph N/A Snow Light Snow
7:12 AM 18.1 °F 1.6 °F 13.5 °F 82% 29.80 in 4.0 mi NW 20.7 mph 31.1 mph N/A Snow Light Snow
7:32 AM 18.3 °F 3.1 °F 13.3 °F 81% 29.81 in 7.0 mi NW 17.3 mph 27.6 mph N/A   Overcast
7:52 AM 18.5 °F 2.0 °F 12.7 °F 78% 29.82 in 10.0 mi NW 20.7 mph 32.2 mph N/A   Mostly Cloudy
8:12 AM 18.5 °F 1.6 °F 12.9 °F 79% 29.81 in 10.0 mi NW 21.9 mph 28.8 mph N/A   Scattered Clouds
8:33 AM 19.2 °F 3.8 °F 13.1 °F 77% 29.83 in 10.0 mi NW 18.4 mph 31.1 mph N/A   Clear
8:52 AM 19.4 °F 5.5 °F 13.1 °F 76% 29.85 in 10.0 mi WNW 15.0 mph 26.5 mph N/A   Scattered Clouds
9:12 AM 19.4 °F 4.5 °F 13.3 °F 77% 29.86 in 10.0 mi NW 17.3 mph 28.8 mph N/A   Mostly Cloudy
9:32 AM 20.1 °F 5.0 °F 13.6 °F 76% 29.87 in 10.0 mi NW 18.4 mph 26.5 mph N/A Snow Light Snow
9:52 AM 20.8 °F 7.3 °F 14.4 °F 76% 29.88 in 10.0 mi NW 15.0 mph 21.9 mph N/A Snow Light Snow
10:12 AM 21.4 °F 7.1 °F 14.7 °F 75% 29.89 in 10.0 mi WNW 17.3 mph 24.2 mph N/A   Mostly Cloudy
10:32 AM 21.9 °F 8.2 °F 15.1 °F 75% 29.91 in 10.0 mi WNW 16.1 mph 27.6 mph N/A   Mostly Cloudy
10:53 AM 21.9 °F 8.7 °F 15.4 °F 76% 29.92 in 10.0 mi WNW 15.0 mph 23.0 mph N/A   Mostly Cloudy
11:12 AM 22.8 °F 9.4 °F 16.2 °F 76% 29.93 in 10.0 mi WNW 16.1 mph 23.0 mph N/A   Mostly Cloudy
11:32 AM 23.5 °F 9.4 °F 18.0 °F 79% 29.95 in 10.0 mi West 18.4 mph 24.2 mph N/A   Mostly Cloudy
11:52 AM 23.0 °F 8.0 °F 16.9 °F 77% 29.96 in 10.0 mi West 20.7 mph 25.3 mph N/A   Overcast
12:12 PM 23.0 °F 9.6 °F 18.3 °F 82% 29.96 in 10.0 mi West 16.1 mph 23.0 mph N/A   Overcast
12:32 PM 23.4 °F 10.1 °F 17.6 °F 79% 29.96 in 10.0 mi WNW 16.1 mph 26.5 mph N/A   Mostly Cloudy
12:52 PM 23.9 °F 10.8 °F 18.3 °F 79% 29.96 in 10.0 mi WNW 16.1 mph 24.2 mph N/A   Mostly Cloudy
1:12 PM 23.9 °F 10.3 °F 18.5 °F 80% 29.96 in 10.0 mi WNW 17.3 mph 23.0 mph N/A   Mostly Cloudy
1:32 PM 25.2 °F 11.6 °F 19.9 °F 81% 29.97 in 10.0 mi WNW 18.4 mph 23.0 mph N/A   Scattered Clouds
1:52 PM 25.9 °F 13.3 °F 20.3 °F 79% 29.97 in 10.0 mi WNW 16.1 mph 23.0 mph N/A   Scattered Clouds
2:13 PM 26.2 °F 13.8 °F 20.3 °F 78% 29.97 in 10.0 mi West 16.1 mph 21.9 mph N/A   Scattered Clouds
2:32 PM 26.8 °F 14.5 °F 21.0 °F 79% 29.98 in 10.0 mi West 16.1 mph - N/A   Scattered Clouds
2:52 PM 27.3 °F 15.6 °F 21.7 °F 80% 29.98 in 10.0 mi West 15.0 mph 23.0 mph N/A   Mostly Cloudy
3:12 PM 28.0 °F 16.5 °F 22.3 °F 79% 29.98 in 10.0 mi WNW 15.0 mph 21.9 mph N/A   Mostly Cloudy
3:32 PM 28.2 °F 18.3 °F 22.3 °F 78% 29.99 in 10.0 mi WNW 11.5 mph 21.9 mph N/A   Scattered Clouds
3:52 PM 28.6 °F 17.7 °F 22.8 °F 79% 29.99 in 10.0 mi WNW 13.8 mph 20.7 mph N/A   Scattered Clouds
4:12 PM 29.1 °F 17.9 °F 23.0 °F 78% 30.00 in 10.0 mi WNW 15.0 mph 19.6 mph N/A   Clear
4:31 PM 29.3 °F 17.0 °F 23.0 °F 77% 30.00 in 10.0 mi West 18.4 mph 23.0 mph N/A   Clear
4:53 PM 29.7 °F 18.2 °F 23.4 °F 77% 30.00 in 10.0 mi WNW 16.1 mph 19.6 mph N/A   Scattered Clouds
5:12 PM 29.1 °F 18.4 °F 22.5 °F 76% 30.01 in 10.0 mi WNW 13.8 mph 20.7 mph N/A   Scattered Clouds
5:32 PM 28.9 °F 17.7 °F 21.6 °F 74% 30.01 in 10.0 mi West 15.0 mph 20.7 mph N/A   Clear
5:52 PM 29.3 °F 18.2 °F 22.8 °F 77% 30.02 in 10.0 mi WNW 15.0 mph 19.6 mph N/A   Clear
6:13 PM 28.6 °F 17.2 °F 21.4 °F 74% 30.03 in 10.0 mi WNW 15.0 mph 21.9 mph N/A   Clear
6:32 PM 28.4 °F 18.5 °F 21.6 °F 76% 30.04 in 10.0 mi WNW 11.5 mph 16.1 mph N/A   Clear
6:52 PM 27.7 °F 16.6 °F 21.2 °F 77% 30.05 in 10.0 mi WNW 13.8 mph 17.3 mph N/A   Clear
7:12 PM 27.3 °F 16.6 °F 20.5 °F 75% 30.06 in 10.0 mi WNW 12.7 mph - N/A   Clear
7:32 PM 26.4 °F 16.6 °F 19.9 °F 77% 30.07 in 10.0 mi WNW 10.4 mph - N/A   Clear
7:52 PM 26.1 °F 16.8 °F 19.9 °F 78% 30.07 in 10.0 mi WNW 9.2 mph - N/A   Clear
8:12 PM 25.5 °F 16.2 °F 19.9 °F 79% 30.08 in 10.0 mi WNW 9.2 mph - N/A   Clear
8:32 PM 24.8 °F 16.9 °F 19.4 °F 80% 30.09 in 10.0 mi WNW 6.9 mph - N/A   Clear
8:52 PM 24.6 °F 16.7 °F 18.9 °F 79% 30.09 in 10.0 mi WNW 6.9 mph - N/A   Clear
9:12 PM 24.3 °F - 19.2 °F 81% 30.10 in 10.0 mi Calm Calm - N/A   Clear
9:32 PM 23.9 °F - 19.4 °F 83% 30.10 in 10.0 mi Calm Calm - N/A   Clear
9:52 PM 23.7 °F - 19.2 °F 83% 30.10 in 10.0 mi Calm Calm - N/A   Clear
10:12 PM 23.7 °F - 18.9 °F 82% 30.11 in 10.0 mi Calm Calm - N/A   Clear
10:32 PM 23.0 °F 17.0 °F 18.5 °F 83% 30.11 in 10.0 mi WNW 4.6 mph - N/A   Clear
10:52 PM 23.2 °F - 18.9 °F 84% 30.11 in 10.0 mi Calm Calm - N/A   Clear
11:11 PM 23.2 °F 15.0 °F 17.6 °F 79% 30.11 in 10.0 mi NW 6.9 mph - N/A   Clear
11:32 PM 23.0 °F 14.7 °F 18.0 °F 81% 30.11 in 10.0 mi NNW 6.9 mph - N/A   Clear
11:53 PM 22.6 °F 14.3 °F 16.3 °F 77% 30.12 in 10.0 mi NNW 6.9 mph - N/A   Clear